Flag for Germany Weather past 2 weeks in Ehingen (Donau), Baden-Württemberg, Germany

Now
30 °F

Chilly.


Feels Like: 24 °F
Forecast: 25 / 33 °F
Wind: 6 mph from Southwest

Location: Laupheim Airport

Current Time: Dec 26, 2014 at 9:09:25 PM

Latest Report: Dec 26, 2014 at 8:20 PM


Visibility: 4 mi

Pressure: 30.27 "Hg

Humidity: 100%

Dew point: 30 °F

Location of Ehingen (Donau)Location

Historic Weather in Ehingen (Donau) — Graph

°F

Ehingen (Donau) temperature yesterday

Maximum temperature yesterday: 45 °F (at 1:20 AM)
Minimum temperature yesterday: 34 °F (at 11:20 PM)
Average temperature yesterday: 39 °F

Past Weeks' High & Low Weather Summary

 TemperatureHumidityPressure
High54 °F (Dec 23, 1:20 PM)100% (Dec 15, 3:20 AM)30.51 "Hg (Dec 15, 3:20 AM)
Low28 °F (Dec 26, 5:20 PM)41% (Dec 23, 1:20 PM)29.77 "Hg (Dec 12, 8:20 PM)
Average41 °F81%30.12 "Hg
* Reported Dec 11 7:20 PM — Dec 26 7:20 PM, Ehingen (Donau), Weather by CustomWeather, © 2014

Note: Actual official high and low records may vary slightly from our data, if they occured in-between our weather recording intervals... More about our weather records

Advertising

Ehingen (Donau) weather history for previous 24 hours

 ConditionsComfort  
Time TempWeatherWind HumidityBarometerVisibility
7:20 PM
Dec 26
30 °FChilly.6 mph100%30.30 "Hg4 mi
6:20 PM30 °FChilly.8 mph100%30.30 "Hg2 mi
5:20 PM28 °FChilly.5 mph100%30.30 "Hg4 mi
4:20 PM30 °FChilly.5 mph93%30.33 "Hg5 mi
3:20 PM32 °FChilly.3 mph93%30.33 "Hg4 mi
2:20 PM34 °FChilly.6 mph87%30.33 "Hg5 mi
1:20 PM34 °FChilly.7 mph87%30.33 "Hg6 mi
12:20 PM34 °FChilly.6 mph93%30.36 "Hg6 mi
11:20 AM32 °FChilly.5 mph93%30.36 "Hg4 mi
10:20 AM30 °FChilly.5 mph100%30.36 "Hg4 mi
9:20 AM30 °FChilly.No wind100%30.36 "Hg4 mi
8:20 AM30 °FChilly.No wind100%30.36 "Hg4 mi
7:20 AM30 °FChilly.No wind100%30.33 "Hg1 mi
6:20 AM32 °FChilly.5 mph100%30.33 "Hg0 mi
5:20 AM32 °FChilly.8 mph100%30.30 "Hg0 mi
4:20 AM34 °FChilly.8 mph87%30.30 "Hg3 mi
3:20 AM34 °FChilly.10 mph87%30.33 "Hg2 mi
2:20 AM34 °FChilly.10 mph87%30.33 "Hg5 mi
1:20 AM34 °FChilly.8 mph87%30.33 "Hg5 mi
12:20 AM34 °FChilly.8 mph81%30.33 "Hg5 mi
11:20 PM
Dec 25
34 °FChilly.8 mph87%30.33 "Hg5 mi
10:20 PM36 °FChilly.10 mph81%30.33 "Hg6 mi
9:20 PM36 °FChilly.10 mph87%30.33 "Hg5 mi
Weather by CustomWeather, © 2014

See weather overviewHow to use our weather pages